Wind_Speed
16 16 15 15 16 16 15 13 9 7 7 6 5 5 4 4 5 5 6 8 9 10 12 13 14 14 15 15 15 14 14 14 14 12 4 1 2 3 2 5 9 12 17
18 18 16 16 15 15 15 13 10 9 7 6 6 5 4 5 5 5 6 7 7 8 10 11 12 13 13 14 14 14 15 16 15 14 7 3 2 4 10 12 12 13 15
20 19 18 17 16 16 14 12 10 9 8 8 7 6 5 5 5 5 5 5 6 8 9 11 11 11 12 12 14 14 15 15 15 14 10 4 3 14 5 4 4 9 14
20 19 19 18 16 15 14 11 10 9 8 7 7 6 6 6 6 6 6 5 6 7 8 9 9 10 11 12 12 13 13 13 13 13 11 8 8 6 7 6 8 15 8
21 21 18 15 14 13 12 10 10 9 8 8 8 8 7 7 7 7 6 6 6 6 7 7 8 8 10 11 11 12 12 12 12 12 11 10 8 6 9 14 21 16 11
18 18 15 14 13 12 11 11 10 9 9 9 8 8 8 8 8 8 7 7 7 7 7 7 7 8 9 9 10 10 11 11 12 12 11 10 9 10 9 14 19 20 18
16 15 13 11 10 10 10 10 10 9 9 10 10 9 9 9 9 9 9 9 9 8 8 8 7 8 8 9 10 10 11 11 11 11 12 12 12 12 13 15 17 19 20
12 10 9 8 8 8 8 8 9 9 10 10 10 10 10 10 10 10 10 10 10 10 9 9 9 9 9 9 10 11 11 12 12 13 12 13 14 15 15 17 18 18 16
10 9 7 7 8 8 8 9 10 10 11 11 12 11 11 11 11 11 11 12 12 12 11 11 10 11 11 12 12 13 14 15 15 15 15 15 15 16 17 18 18 18 13
10 8 7 7 8 9 10 10 11 10 11 11 11 11 10 10 10 11 11 12 13 13 14 14 13 13 14 14 15 16 17 18 19 19 19 19 18 18 18 18 19 19 19
7 4 3 5 7 10 11 11 10 9 9 10 10 10 10 10 11 11 12 13 13 14 15 15 15 16 16 17 18 19 20 21 22 22 23 22 21 21 20 20 20 20 21
8 7 6 5 4 3 6 10 10 10 10 9 10 10 10 10 10 10 12 13 14 14 16 17 18 19 19 20 21 23 24 27 28 26 26 24 24 23 22 22 21 22 22
9 9 7 8 9 9 7 4 4 6 7 8 8 9 9 9 10 11 12 13 14 16 17 18 19 19 21 22 26 31 31 30 29 27 27 27 26 25 23 23 23 23 23
10 9 8 9 9 10 10 10 8 5 2 5 7 9 10 10 11 12 13 15 17 18 20 24 28 32 33 29 29 31 30 29 30 29 28 27 27 27 25 25 24 24 25
10 9 9 9 9 9 9 9 9 8 8 6 6 6 7 9 11 14 16 18 23 27 30 30 29 27 26 28 28 29 30 32 32 30 29 28 28 28 28 28 28 28 28
9 8 7 7 7 8 9 9 10 10 10 11 11 13 14 16 17 19 20 21 23 24 26 27 28 29 29 30 29 29 30 28 28 29 28 29 29 29 29 29 30 30 31
10 7 5 3 3 4 6 6 8 9 11 13 15 17 19 21 23 25 26 27 29 29 30 31 30 32 33 31 30 29 30 31 32 33 32 32 32 31 31 32 32 31 30
10 6 3 1 3 5 7 8 10 13 16 19 21 24 25 27 29 30 31 32 32 33 33 34 33 33 35 33 33 34 34 36 37 37 36 35 35 35 32 33 34 35 33
7 3 1 3 5 6 8 11 14 18 21 23 25 28 30 32 34 35 35 35 35 37 35 35 35 35 35 33 32 32 32 34 35 36 36 34 32 32 29 30 32 32 33
5 2 2 5 7 8 12 16 19 23 26 28 29 30 31 34 37 38 39 38 39 41 37 36 35 34 33 32 31 31 31 33 34 34 34 30 28 30 29 29 30 30 32
3 5 5 6 8 12 16 19 22 26 27 30 32 33 33 34 36 38 39 41 41 40 36 34 35 35 33 33 33 32 30 31 32 33 34 32 29 29 29 27 28 31 29
5 4 5 7 10 16 21 25 28 30 32 33 35 36 37 36 35 36 40 41 39 36 37 38 39 40 38 34 32 29 26 24 25 31 32 33 30 31 31 30 30 29 26
3 4 9 14 17 22 24 29 32 33 34 35 37 38 38 38 38 39 39 38 37 37 38 38 39 39 36 33 30 28 27 25 24 25 27 27 27 29 28 27 27 25 26
6 10 16 21 26 28 29 31 34 35 36 37 39 40 40 41 41 41 39 36 35 34 34 34 34 34 33 33 33 31 27 25 27 28 30 29 28 29 30 29 28 27 27
12 16 22 27 30 32 33 34 35 35 37 39 41 42 42 42 42 42 39 36 34 31 30 29 30 33 35 34 30 27 28 27 28 28 30 31 32 31 31 30 30 29 28
18 23 26 29 32 34 36 36 36 35 35 37 39 39 38 40 40 40 42 36 33 28 25 25 25 28 29 28 27 27 27 26 26 27 28 28 27 28 28 30 31 30 26
Wind_Direction
204 203 202 204 211 214 216 223 241 248 247 258 245 241 259 290 316 332 344 350 357 4 6 4 3 1 3 5 9 8 9 17 19 21 27 119 118 131 230 274 285 299 309
200 203 203 204 204 207 209 220 237 238 250 257 239 242 253 279 297 322 333 343 354 359 2 2 4 6 9 10 10 14 15 19 25 28 35 18 333 242 271 267 274 295 313
206 204 202 200 199 201 209 223 234 235 240 236 232 234 251 266 282 295 307 323 339 350 356 359 1 5 8 11 13 15 19 21 24 29 36 13 343 337 338 311 318 320 320
207 205 197 195 195 200 213 226 227 233 241 234 234 245 258 264 269 278 292 306 327 342 348 355 359 5 7 9 11 14 15 20 23 25 25 21 358 344 326 324 333 348 349
204 196 191 191 196 207 218 225 229 236 236 234 236 246 258 268 275 277 280 292 311 326 336 344 351 355 360 3 5 6 9 11 14 16 15 10 0 350 328 320 336 350 357
183 185 183 189 203 214 226 226 231 238 238 240 247 260 273 278 278 278 280 287 298 307 316 324 331 340 347 350 352 355 359 359 0 360 359 356 350 333 323 316 328 334 341
175 177 189 203 217 222 224 233 242 244 245 247 253 264 274 279 279 277 276 279 283 290 298 304 314 325 333 339 341 343 344 345 345 345 343 340 336 331 324 316 316 319 327
170 181 197 208 214 219 229 239 249 247 250 255 260 267 275 280 281 280 277 278 280 282 287 293 302 313 320 325 327 330 330 329 329 328 327 325 322 320 317 315 315 314 312
174 180 192 204 214 223 237 249 257 254 255 258 263 269 278 285 288 286 283 281 282 283 287 291 295 300 306 311 317 320 320 319 318 316 314 312 308 306 303 302 300 300 301
169 180 199 217 228 235 242 251 256 253 253 258 265 273 281 288 288 287 286 286 286 287 287 288 291 295 300 307 311 314 314 314 311 308 306 305 302 299 297 294 292 289 285
148 164 206 235 244 248 250 250 253 252 250 255 260 265 275 283 287 289 289 289 291 290 291 293 295 294 295 297 299 302 304 305 303 301 298 298 296 295 293 290 288 286 282
131 117 97 71 40 354 277 261 256 250 244 252 263 273 282 286 288 291 294 294 293 293 294 295 296 296 297 297 298 300 301 301 298 295 293 293 291 290 289 288 287 285 283
118 103 87 65 48 36 27 8 277 262 260 266 271 277 282 286 287 290 291 292 293 294 295 297 298 299 297 296 299 299 298 295 292 291 289 290 288 286 284 283 282 282 280
124 108 91 76 66 59 53 49 48 40 329 281 276 278 279 281 284 289 295 299 300 299 297 297 297 296 297 293 290 291 291 291 291 290 289 288 286 285 284 281 281 282 280
126 112 99 85 71 59 50 43 37 30 22 2 341 323 316 311 308 305 303 301 300 300 296 293 291 288 282 286 289 287 288 289 289 287 286 285 283 283 283 283 283 282 280
134 118 101 83 64 45 29 19 11 3 356 345 340 337 331 325 319 315 312 310 306 302 297 293 291 289 287 287 288 288 289 289 289 291 289 287 284 283 283 283 284 282 281
153 148 138 105 39 10 6 5 359 353 342 337 334 329 325 323 321 320 318 315 312 310 306 301 297 293 290 290 288 284 283 285 287 290 292 291 287 285 283 280 279 278 277
173 172 165 46 12 4 356 350 344 335 328 327 326 323 321 318 317 315 316 316 316 312 307 303 300 296 294 293 289 286 284 284 285 288 290 290 288 285 285 284 281 280 279
176 168 112 6 351 337 328 324 323 320 316 319 317 315 314 313 312 311 313 315 317 317 308 302 300 299 297 297 296 295 293 290 288 286 285 284 282 284 284 279 277 277 277
163 142 2 329 317 314 313 313 313 311 311 312 306 305 304 303 304 305 307 310 312 313 307 304 302 299 297 298 298 299 297 294 293 291 288 284 278 281 283 280 278 275 275
176 306 302 295 305 308 309 309 310 309 309 305 304 303 303 302 297 295 297 302 306 306 303 302 302 299 298 298 299 298 295 292 292 289 288 286 279 274 277 276 274 275 280
274 266 291 301 308 310 311 311 310 312 309 307 306 305 303 301 297 293 296 299 300 300 299 298 298 297 298 300 300 299 296 292 285 284 287 286 282 279 281 277 272 272 271
254 281 299 304 308 311 313 311 314 314 312 309 307 304 303 301 299 297 298 299 298 297 296 297 297 298 301 303 306 306 302 298 293 291 292 291 285 282 280 277 273 270 264
271 298 307 311 313 314 314 314 313 314 312 309 307 307 306 305 303 302 302 301 299 300 299 300 300 302 304 306 308 310 308 303 298 296 292 290 287 281 277 277 275 272 271
305 312 314 314 313 314 315 316 318 317 314 311 309 308 308 307 306 304 305 304 302 302 301 299 300 300 299 300 302 297 299 299 297 297 295 293 292 290 286 280 275 273 271
311 312 313 313 314 317 317 317 317 317 314 312 313 314 314 312 310 309 308 305 303 302 296 293 289 291 292 296 297 297 298 296 297 295 293 296 295 292 293 292 284 282 277
Height
1535 1537 1540 1542 1544 1547 1549 1551 1552 1553 1553 1553 1554 1555 1555 1555 1554 1553 1553 1552 1551 1549 1547 1546 1543 1541 1539 1536 1534 1532 1530 1528 1526 1525 1524 1523 1522 1521 1520 1520 1519 1518 1517
1531 1534 1536 1539 1542 1544 1546 1548 1550 1550 1551 1552 1553 1553 1554 1553 1553 1552 1551 1550 1549 1548 1546 1544 1542 1540 1538 1536 1534 1532 1529 1526 1524 1523 1523 1524 1525 1523 1520 1518 1516 1515 1514
1528 1531 1533 1536 1539 1542 1544 1546 1547 1548 1549 1550 1551 1552 1552 1551 1551 1550 1550 1549 1548 1547 1546 1544 1542 1540 1538 1536 1534 1532 1529 1527 1526 1524 1525 1523 1523 1520 1520 1518 1516 1514 1511
1526 1529 1531 1534 1537 1540 1542 1544 1546 1546 1548 1548 1549 1550 1550 1550 1550 1549 1549 1548 1547 1546 1545 1543 1542 1540 1538 1536 1534 1532 1530 1527 1525 1524 1524 1524 1524 1523 1520 1518 1516 1513 1509
1522 1526 1530 1533 1536 1539 1541 1542 1544 1545 1545 1547 1547 1548 1548 1548 1548 1548 1548 1547 1546 1545 1544 1543 1541 1540 1538 1536 1535 1533 1530 1528 1526 1524 1523 1522 1522 1522 1521 1516 1513 1511 1510
1521 1526 1529 1532 1535 1537 1539 1540 1542 1543 1544 1545 1546 1547 1547 1547 1547 1547 1546 1546 1545 1544 1543 1542 1540 1538 1537 1535 1534 1532 1530 1528 1526 1524 1522 1521 1520 1520 1519 1515 1512 1509 1506
1522 1526 1529 1531 1534 1535 1537 1539 1540 1541 1542 1543 1544 1545 1545 1545 1545 1544 1544 1543 1543 1542 1541 1540 1538 1537 1536 1534 1533 1531 1530 1527 1525 1524 1522 1520 1519 1517 1516 1514 1511 1508 1504
1523 1526 1528 1530 1532 1534 1536 1537 1537 1538 1540 1541 1541 1542 1542 1542 1542 1542 1541 1541 1541 1540 1539 1538 1537 1535 1534 1532 1531 1530 1528 1526 1524 1522 1520 1518 1517 1516 1513 1511 1510 1505 1503
1522 1525 1527 1529 1530 1532 1533 1534 1535 1536 1537 1538 1538 1539 1539 1539 1539 1539 1538 1538 1538 1537 1536 1535 1534 1533 1531 1530 1528 1527 1525 1523 1521 1519 1517 1516 1514 1512 1510 1509 1506 1505 1501
1521 1523 1525 1527 1528 1530 1531 1531 1532 1533 1534 1535 1536 1536 1537 1536 1536 1536 1535 1535 1534 1534 1533 1532 1531 1529 1529 1528 1526 1524 1523 1520 1518 1515 1514 1511 1510 1508 1506 1504 1503 1501 1499
1521 1523 1524 1525 1526 1527 1527 1528 1529 1530 1531 1531 1532 1532 1533 1533 1532 1532 1532 1532 1531 1531 1530 1529 1528 1526 1524 1522 1521 1519 1517 1516 1514 1511 1508 1507 1504 1503 1501 1499 1497 1496 1494
1521 1523 1523 1524 1524 1524 1524 1525 1526 1527 1528 1529 1530 1531 1531 1531 1530 1530 1529 1529 1528 1527 1527 1526 1525 1523 1521 1519 1516 1515 1513 1510 1508 1506 1503 1501 1498 1496 1494 1493 1492 1490 1488
1522 1523 1524 1524 1523 1523 1523 1523 1524 1525 1526 1527 1527 1527 1527 1527 1527 1526 1525 1524 1523 1523 1522 1520 1519 1517 1515 1513 1512 1509 1506 1503 1501 1499 1496 1494 1492 1489 1487 1486 1485 1483 1482
1522 1522 1523 1523 1524 1524 1523 1523 1522 1522 1522 1522 1522 1522 1522 1522 1522 1521 1521 1520 1519 1517 1516 1515 1513 1510 1508 1505 1503 1500 1497 1494 1492 1491 1488 1487 1485 1482 1481 1479 1478 1477 1475
1522 1523 1524 1525 1525 1525 1525 1525 1524 1524 1524 1523 1523 1522 1521 1520 1519 1518 1517 1516 1514 1512 1510 1507 1505 1502 1499 1497 1495 1492 1489 1486 1484 1482 1480 1478 1477 1476 1474 1471 1470 1469 1468
1523 1524 1525 1526 1526 1526 1526 1525 1525 1524 1524 1523 1522 1521 1521 1520 1517 1515 1513 1511 1508 1506 1504 1501 1498 1494 1492 1490 1487 1484 1480 1478 1476 1473 1472 1470 1469 1467 1466 1464 1462 1461 1459
1520 1521 1522 1523 1523 1523 1522 1522 1522 1521 1520 1519 1518 1517 1515 1513 1511 1508 1506 1504 1501 1498 1495 1492 1490 1486 1483 1481 1478 1476 1472 1469 1467 1465 1463 1461 1460 1459 1457 1455 1453 1451 1451
1518 1520 1521 1522 1522 1522 1522 1522 1522 1521 1520 1518 1516 1514 1511 1509 1506 1503 1500 1497 1494 1491 1487 1484 1480 1477 1473 1471 1469 1466 1463 1460 1457 1456 1454 1451 1449 1448 1447 1445 1444 1442 1441
1519 1520 1522 1522 1522 1522 1521 1520 1519 1518 1516 1514 1511 1509 1506 1502 1499 1495 1492 1489 1485 1481 1478 1474 1471 1467 1463 1461 1459 1456 1453 1449 1446 1445 1442 1441 1439 1438 1438 1435 1433 1431 1430
1518 1519 1520 1520 1520 1520 1518 1517 1516 1514 1512 1509 1506 1503 1499 1495 1490 1487 1483 1480 1477 1472 1468 1464 1461 1457 1454 1452 1450 1447 1443 1440 1436 1434 1431 1431 1429 1428 1428 1426 1424 1422 1421
1517 1518 1518 1518 1518 1517 1516 1514 1511 1508 1505 1501 1498 1494 1491 1487 1483 1478 1475 1471 1468 1463 1459 1455 1451 1448 1446 1442 1440 1438 1434 1430 1427 1423 1421 1420 1420 1419 1417 1417 1415 1413 1414
1514 1514 1515 1515 1514 1513 1510 1508 1505 1501 1497 1493 1489 1485 1482 1478 1474 1470 1465 1462 1458 1454 1450 1446 1441 1437 1434 1432 1429 1427 1424 1422 1419 1414 1412 1410 1409 1408 1408 1407 1406 1406 1406
1511 1512 1511 1510 1509 1507 1504 1501 1498 1494 1488 1484 1480 1476 1472 1468 1464 1459 1455 1451 1448 1444 1439 1436 1430 1425 1424 1420 1419 1416 1414 1412 1409 1406 1403 1401 1400 1398 1397 1397 1397 1397 1397
1509 1508 1507 1505 1503 1501 1497 1494 1490 1486 1480 1475 1470 1465 1460 1456 1451 1447 1444 1440 1437 1433 1429 1425 1421 1416 1413 1411 1409 1406 1404 1402 1401 1398 1395 1393 1391 1389 1388 1387 1387 1387 1387
1506 1504 1502 1499 1496 1493 1490 1486 1481 1477 1471 1466 1460 1455 1450 1445 1440 1436 1433 1430 1426 1424 1419 1416 1413 1409 1405 1404 1402 1400 1397 1395 1392 1389 1386 1382 1380 1379 1378 1377 1377 1377 1377
1500 1497 1495 1492 1489 1484 1480 1477 1473 1468 1463 1456 1451 1447 1442 1437 1433 1427 1421 1421 1417 1415 1412 1409 1407 1404 1400 1397 1395 1393 1390 1387 1385 1381 1377 1375 1373 1370 1369 1367 1366 1366 1366